#timestamp,LO_Frequency,Hit,StdDev 
1663696815.6,286046997.7,N
1663696835.5,286046997.5,N
1663696855.3,286046996.8,N
1663696875.1,286046999.0,N
1663696895.9,286046999.5,N
1663696915.7,286046998.8,N
1663696935.5,286047000.0,N
1663696955.4,286046998.9,N
1663696975.2,286046998.7,N
1663696995.1,286046998.2,N
1663696996.0,286046998.2,N
1663697015.8,286047000.5,N
1663697035.6,286046998.7,N
1663697055.5,286046999.4,N
1663697075.3,286046997.6,N
1663697095.1,286046995.7,N
1663697115.9,286046997.3,N
1663697135.7,286046995.7,N
1663697155.6,286046993.9,Y
1663697175.4,286046995.2,P
1663697195.2,286046995.0,N
1663697215.1,286046997.7,N
1663697216.0,286046997.7,N
1663697235.8,286046998.9,N
1663697255.6,286046998.4,N
1663697275.5,286047000.6,N
1663697295.3,286046998.4,N
1663697315.2,286046998.3,N
1663697335.0,286047000.6,N
1663697355.3,286047000.8,N
1663697375.1,286046998.2,N
1663697395.9,286046998.8,N
1663697415.7,286046998.8,N
1663697435.5,286046999.1,N
1663697455.4,286047001.2,N
1663697475.2,286046999.7,N
1663697495.0,286047002.8,N
1663697496.0,286047002.8,N
1663697515.8,286047000.7,N
1663697535.6,286046998.1,N
1663697555.5,286047000.3,N
1663697575.3,286047001.6,N
1663697595.2,286047001.5,N
1663697615.9,286047002.8,N
1663697635.7,286047001.7,N
1663697655.6,286047001.5,N
1663697675.4,286047002.0,N
1663697695.2,286047001.5,N
1663697715.1,286047003.9,N
1663697716.0,286047003.9,N
1663697735.8,286047001.7,N
1663697755.7,286047004.2,N
1663697775.5,286047003.5,N
1663697795.3,286047005.9,Y
1663697815.2,286047003.4,P
1663697835.0,286047004.3,P
1663697835.9,286047004.3,N
1663697855.8,286047001.4,N
1663697875.6,286047002.0,N
1663697895.4,286047004.1,N
1663697915.3,286047000.7,N
1663697935.1,286046999.2,N
1663697955.8,286046998.8,N
1663697975.7,286046998.7,N
1663697995.5,286046998.7,N
1663698015.4,286046999.4,N
1663698035.2,286046997.4,N
1663698055.0,286046999.2,N
1663698055.9,286046999.2,N
1663698075.8,286046998.2,N
1663698095.6,286047000.6,N
1663698115.5,286047000.3,N
1663698135.3,286047001.1,N
1663698155.1,286047002.1,N
1663698175.9,286047004.4,N
1663698195.7,286047004.4,N
1663698215.5,286047004.4,N
1663698235.4,286047004.0,N
1663698255.2,286047002.6,N
1663698275.1,286047001.8,N
1663698276.0,286047001.8,N
1663698295.8,286047004.3,N
1663698315.6,286047003.8,N
1663698335.5,286047005.9,N
1663698355.3,286047003.8,N
1663698375.1,286047001.9,N
1663698395.9,286047000.3,N
1663698415.7,286046999.7,N
1663698435.6,286047003.7,N
1663698455.4,286047003.7,N
1663698475.2,286047002.9,N
1663698495.1,286047003.3,N
1663698496.0,286047003.3,N
1663698515.8,286047006.0,N
1663698535.6,286047004.7,N
1663698555.5,286047004.5,N
1663698575.3,286047004.3,N
1663698595.2,286047002.5,N
1663698615.9,286047001.6,N
1663698665.8,286047004.4,E
1663698675.7,286047002.3,N
1663698695.5,286047001.1,P
1663698715.4,286047001.0,N
1663698735.2,286047001.2,N
1663698755.0,286046999.6,N
1663698755.9,286046999.6,N
1663698775.8,286046998.6,N
1663698795.6,286047000.4,N
1663698815.5,286046998.1,N
1663698835.3,286046999.5,N
1663698855.1,286046998.7,N
1663698875.9,286046997.7,N
1663698895.7,286046997.2,N
1663698915.6,286046996.8,N
1663698935.4,286046999.1,N
1663698955.2,286047001.2,N
1663698975.1,286046998.8,N
1663698976.0,286046998.8,N
1663698995.8,286047000.9,N
1663699015.6,286046999.7,N
1663699035.5,286046998.4,N
1663699055.3,286046999.2,N
1663699075.2,286046999.3,N
1663699095.9,286046998.3,N
1663699115.7,286046999.2,N
1663699135.6,286046996.9,N
1663699155.4,286046999.6,N
1663699175.3,286047000.9,N
1663699195.1,286047000.8,N
1663699196.0,286047000.8,N
1663699215.8,286046998.8,N
1663699235.7,286046998.3,N
1663699255.5,286047000.6,N
1663699275.3,286047000.0,N
1663699295.2,286047000.9,N
1663699315.0,286046998.5,N
1663699315.9,286046998.5,N
1663699335.8,286046997.8,N
1663699355.6,286046995.1,Y
1663699375.4,286046995.2,P
1663699395.3,286046998.7,N
1663699415.1,286047001.2,N
1663699435.9,286047000.2,N
1663699455.7,286047001.2,N
1663699475.5,286047000.5,N
1663699495.4,286047000.6,N
1663699515.2,286046998.2,N
1663699535.1,286046998.4,N
1663699536.0,286046998.4,N
1663699555.8,286047000.8,N
1663699575.6,286047000.7,N
1663699595.5,286047002.7,N
1663699615.3,286047004.4,N
1663699635.1,286047001.8,N
1663699655.9,286047002.5,N
1663699675.7,286046999.9,N
1663699695.6,286047002.3,N
1663699715.4,286047001.9,N
1663699735.2,286047002.6,N
1663699755.1,286046999.7,N
1663699756.0,286046999.7,N
1663699775.8,286047001.9,N
1663699795.7,286047002.1,N
1663699815.5,286047002.0,N
1663699835.3,286047004.2,N
1663699855.2,286047003.7,N
1663699875.9,286047002.2,N
1663699895.8,286047001.1,N
1663699915.6,286047000.4,N
1663699935.4,286046999.7,N
1663699955.3,286047002.2,N
1663699975.1,286047002.0,N
1663699995.8,286046999.8,N
1663700015.7,286047000.2,N
1663700035.5,286047001.9,N
1663700055.4,286047001.8,N
1663700075.2,286047002.6,N
1663700095.0,286047004.0,N
1663700095.9,286047004.0,N
1663700115.8,286047004.2,Y
1663700135.6,286047000.8,P
1663700155.4,286047000.6,N
1663700175.3,286047000.0,N
1663700195.1,286047002.5,Y
1663700215.9,286047002.4,P
1663700235.7,286047002.7,P
1663700255.5,286047001.1,N
1663700275.4,286047000.7,N
1663700295.2,286047000.8,N
1663700315.0,286047000.8,N
1663700316.0,286047000.8,N
1663700335.8,286046999.8,N
1663700355.6,286047002.2,N
1663700375.5,286047001.1,N
1663700395.3,286046999.2,N
